Location: Lansingburgh
(42.7845°N, 73.6696°W)
Time: 17:11:57
(UTC+00:00)

ISS - Pass Details

Date: 24 January 2020
Orbit: 415 x 422 km, 51.6° (Epoch: 24 February)

Event Time Altitude Azimuth Distance (km) Brightness Sun altitude
Rises 23:32:57 0° 261° (W) 2,373 1.8 -17.6°
Reaches altitude 10° 23:35:11 10° 272° (W) 1,509 0.3 -18.0°
Maximum altitude 23:38:17 32° 338° (NNW) 743 -2.4 -18.5°
Enters shadow 23:39:04 29° 6° (N) 812 -2.5 -18.7°
